Location: Caltech
(34.1382°N, 118.1253°W)
Time: 12:13:47
(UTC-07:00)

Sapphire - Visible Passes

Search period start: 01 July 2015 00:00
Search period end: 11 July 2015 00:00
Orbit: 787 x 795 km, 67.1° (Epoch: 01 July)

Date Brightness Start Highest point End Pass type
(mag) Time Alt. Az. Time Alt. Az. Time Alt. Az.
01 Jul ? 02:08:53 10° NNW 02:14:12 56° ENE 02:14:22 56° ENE visible
01 Jul ? 03:53:58 10° WNW 03:55:02 13° W 03:55:02 13° W visible
02 Jul ? 01:38:29 10° N 01:43:34 40° ENE 01:43:42 40° ENE visible
02 Jul ? 03:22:33 10° NW 03:24:23 17° WNW 03:24:23 17° WNW visible
03 Jul ? 01:08:12 10° N 01:12:52 29° NE 01:13:10 29° ENE visible
03 Jul ? 02:51:30 10° NW 02:53:51 22° WNW 02:53:51 22° WNW visible
04 Jul ? 00:38:03 10° N 00:42:07 22° NE 00:42:45 21° ENE visible
04 Jul ? 02:20:39 10° NW 02:23:26 28° NW 02:23:26 28° NW visible
05 Jul ? 00:08:07 10° NNE 00:11:19 16° NE 00:12:24 15° ENE visible
05 Jul ? 01:49:56 10° NNW 01:53:07 35° NW 01:53:07 35° NW visible
05 Jul ? 23:38:40 10° NNE 23:40:27 12° NE 23:42:09 11° ENE visible
06 Jul ? 01:19:20 10° NNW 01:22:51 42° NNW 01:22:51 42° NNW visible
07 Jul ? 00:48:49 10° NNW 00:52:39 44° N 00:52:39 44° N visible
08 Jul ? 00:18:24 10° NNW 00:22:31 39° NNE 00:22:31 39° NNE visible
08 Jul ? 02:02:43 10° WNW 02:03:13 12° WNW 02:03:13 12° WNW visible
08 Jul ? 23:48:05 10° N 23:52:26 31° NE 23:52:26 31° NE visible
09 Jul ? 01:31:35 10° NW 01:33:08 17° WNW 01:33:08 17° WNW visible
09 Jul ? 23:17:53 10° N 23:22:09 24° NE 23:22:23 24° ENE visible
10 Jul ? 01:00:41 10° NW 01:03:06 25° NW 01:03:06 25° NW visible
10 Jul ? 22:47:53 10° N 22:51:21 18° NE 22:52:23 17° ENE visible
